Satellite: AO-49
Catalog number: 27605
Epoch time:      05285.92221921
Element set:    0866
Inclination:      064.5577 deg
RA of node:       137.3543 deg
Eccentricity:    0.0072338
Arg of perigee:   215.7255 deg
Mean anomaly:     143.8982 deg
Mean motion:   14.72137642 rev/day
Decay rate:       -9.3e-07 rev/day^2
Epoch rev:           15118
Checksum:              323

Satellite: SO-50
Catalog number: 27607
Epoch time:      05286.60126518
Element set:     841
Inclination:      064.5574 deg
RA of node:       141.5659 deg
Eccentricity:    0.0072576
Arg of perigee:   214.2281 deg
Mean anomaly:     145.4132 deg
Mean motion:   14.71037250 rev/day
Decay rate:        3.9e-07 rev/day^2
Epoch rev:           15115
Checksum:              285

Satellite: AO-51
Catalog number: 28375
Epoch time:      05285.72727755
Element set:     362
Inclination:      098.2036 deg
RA of node:       343.5526 deg
Eccentricity:    0.0083136
Arg of perigee:   236.1402 deg
Mean anomaly:     123.1856 deg
Mean motion:   14.40483030 rev/day
Decay rate:        3.8e-07 rev/day^2
Epoch rev:            6753
Checksum:              295

/EX
SB KEPS @ AMSAT  $ORB05286.W
Orbital Elements  05286.WEATHER

HR AMSAT ORBITAL ELEMENTS FOR WEATHER SATELLITES
FROM WA5QGD FORT WORTH,TX October 13, 2005
Send SUBSCRIBE KEPS/UNSUBSCRIBE KEPS to majordomo@amsat.org only
BID: ORB05286.W
TO ALL RADIO AMATEURS BT

Satellite: NOAA-10
Catalog number: 16969
Epoch time:      05286.45274702
Element set:     921
Inclination:      098.7667 deg
RA of node:       292.5145 deg
Eccentricity:    0.0013063
Arg of perigee:   145.7343 deg
Mean anomaly:     214.4740 deg
Mean motion:   14.27272123 rev/day
Decay rate:        3.4e-07 rev/day^2
Epoch rev:           99196
Checksum:              312

Satellite: NOAA-11
Catalog number: 19531
Epoch time:      05286.18915982
Element set:     799
Inclination:      098.8418 deg
RA of node:       012.1471 deg
Eccentricity:    0.0011053
Arg of perigee:   336.2938 deg
Mean anomaly:     023.7709 deg
Mean motion:   14.14771462 rev/day
Decay rate:      -2.02e-06 rev/day^2
Epoch rev:           87961
Checksum:              319

Satellite: NOAA-12
Catalog number: 21263
Epoch time:      05286.17209605
Element set:     284
Inclination:      098.7126 deg
RA of node:       275.7568 deg
Eccentricity:    0.0013681
Arg of perigee:   086.2492 deg
Mean anomaly:     274.0252 deg
Mean motion:   14.25470107 rev/day
Decay rate:       -9.9e-07 rev/day^2
Epoch rev:           74905
Checksum:              313

Satellite: MET-3/5
Catalog number: 21655
Epoch time:      05285.85575890
Element set:     937
Inclination:      082.5524 deg
RA of node:       075.5322 deg
Eccentricity:    0.0012179
Arg of perigee:   302.4834 deg
Mean anomaly:     057.5157 deg
Mean motion:   13.17001387 rev/day
Decay rate:        5.1e-07 rev/day^2
Epoch rev:           68080
Checksum:              307

Satellite: MET-2/21
Catalog number: 22782
Epoch time:      05285.71201814
Element set:    0325
Inclination:      082.5496 deg
RA of node:       167.7722 deg
Eccentricity:    0.0022976
Arg of perigee:   151.4526 deg
Mean anomaly:     208.7859 deg
Mean motion:   13.83595733 rev/day
Decay rate:       -5.5e-07 rev/day^2
Epoch rev:           61182
Checksum:              322

Satellite: OKEAN-4
Catalog number: 23317
Epoch time:      05285.81614998
Element set:     756
Inclination:      082.5390 deg
RA of node:       147.7196 deg
Eccentricity:    0.0023802
Arg of perigee:   107.5386 deg
Mean anomaly:     252.8423 deg
Mean motion:   14.82241623 rev/day
Decay rate:       2.98e-06 rev/day^2
Epoch rev:           59333
Checksum:              322

Satellite: NOAA-14
Catalog number: 23455
Epoch time:      05285.92724017
Element set:     808
Inclination:      099.0769 deg
RA of node:       336.1063 deg
Eccentricity:    0.0009570
Arg of perigee:   034.0236 deg
Mean anomaly:     326.1548 deg
Mean motion:   14.13601843 rev/day
Decay rate:       -4.5e-07 rev/day^2
Epoch rev:           55613
Checksum:              294

Satellite: SICH-1
Catalog number: 23657
Epoch time:      05285.84636673
Element set:     559
Inclination:      082.5258 deg
RA of node:       288.5333 deg
Eccentricity:    0.0025849
Arg of perigee:   095.4663 deg
Mean anomaly:     264.9524 deg
Mean motion:   14.81244700 rev/day
Decay rate:       3.22e-06 rev/day^2
Epoch rev:           54537
Checksum:              333

Satellite: NOAA-15
Catalog number: 25338
Epoch time:      05286.14098461
Element set:     222
Inclination:      098.5155 deg
RA of node:       290.9004 deg
Eccentricity:    0.0011225
Arg of perigee:   019.6465 deg
Mean anomaly:     340.5152 deg
Mean motion:   14.24542518 rev/day
Decay rate:        1.2e-07 rev/day^2
Epoch rev:           38554
Checksum:              281

Satellite: RESURS
Catalog number: 25394
Epoch time:      05285.96902445
Element set:    0206
Inclination:      098.5270 deg
RA of node:       351.7642 deg
Eccentricity:    0.0001824
Arg of perigee:   145.7220 deg
Mean anomaly:     214.4077 deg
Mean motion:   14.24082422 rev/day
Decay rate:     -.00000000 rev/day^2
Epoch rev:           37721
Checksum:              262

Satellite: FENGYUN1
Catalog number: 25730
Epoch time:      05285.85309741
Element set:     546
Inclination:      098.6150 deg
RA of node:       282.9684 deg
Eccentricity:    0.0015117
Arg of perigee:   123.2755 deg
Mean anomaly:     236.9859 deg
Mean motion:   14.11799319 rev/day
Decay rate:      -1.29e-06 rev/day^2
Epoch rev:           33111
Checksum:              316

